Regional Weather Roundup
Issued by NWS

Home | Current Version | Previous Version | Text Only | Print | Product List | Glossary Off
Versions: 1 2 3 4 5 6 7 8 9 10 11 12 13 14 15 16 17 18 19 20 21 22 23 24 25 26 27 28 29 30 31 32 33 34 35 36 37 38 39 40 41 42 43 44 45 46 47 48 49 50

978
ASUS44 KJAN 231210
RWRMS

MISSISSIPPI HOURLY WEATHER ROUNDUP
NATIONAL WEATHER SERVICE JACKSON MS
700 AM CDT TUE SEP 23 2014

NOTE: "FAIR: INDICATES FEW OR NO CLOUDS BELOW 12,000 FEET WITH NO
SIGNIFICANT WEATHER AND/OR OBSTRUCTIONS TO VISIBILITY.

MSZ001>002-007>008-010>013-018>021-025>028-034>036-231300-
NORTHWEST MISSISSIPPI

CITY           SKY/WX    TMP DP  RH WIND       PRES   REMARKS
CLARKSDALE       N/A     52  50  93 N5        30.22S
CLEVELAND      FAIR      52  51  94 NE5       30.19S
GREENWOOD      CLEAR     48  46  93 N3        30.18S
6HR MIN TEMP:  48; 6HR MAX TEMP:  56;

GREENVILLE     CLEAR     54  50  86 NE9       30.18R
6HR MIN TEMP:  54; 6HR MAX TEMP:  60;

GRENADA        FAIR      54  46  76 CALM      30.19S
OLIVE BRANCH   PTCLDY    52  52 100 E5        30.23S
OXFORD         FAIR      48  46  93 NE3       30.23R
TUNICA         SUNNY     48  45  87 N3        30.24R
$$

MSZ003>006-009-014>017-022>024-029>033-037>039-231300-
NORTHEAST MISSISSIPPI

CITY           SKY/WX    TMP DP  RH WIND       PRES   REMARKS
COLUMBUS AFB   CLEAR     50  47  90 N2        30.18R
6HR MIN TEMP:  50; 6HR MAX TEMP:  58;

CORINTH          N/A     48  45  87 NW6       30.22R
GOLDN TRIANGLE CLEAR     50  45  81 NW5       30.18R
STARKVILLE     FAIR      52  50  93 N3        30.17S
TUPELO         CLEAR     50  47  89 NE6       30.20R
6HR MIN TEMP:  50; 6HR MAX TEMP:  55;

$$

MSZ040-058-231300-
CENTRAL MISSISSIPPI

CITY           SKY/WX    TMP DP  RH WIND       PRES   REMARKS
JACKSON INTL   CLEAR     57  51  80 NE5       30.15S
6HR MIN TEMP:  57; 6HR MAX TEMP:  67;

JACKSON HAWKNS CLEAR     58  51  78 CALM      30.16R
6HR MIN TEMP:  58; 6HR MAX TEMP:  66;

MERIDIAN KEY   CLEAR     53  50  89 N6        30.15R
6HR MIN TEMP:  52; 6HR MAX TEMP:  59;

MERIDIAN NAS   CLEAR     55  49  80 NE6       30.15R
6HR MIN TEMP:  54; 6HR MAX TEMP:  61;

RAYMOND        FAIR      52  46  82 CALM      30.15S
VICKSBURG      CLEAR     58  54  86 NE7       30.16R
6HR MIN TEMP:  56; 6HR MAX TEMP:  64;

$$

MSZ059>079-231300-
SOUTH MISSISSIPPI

CITY           SKY/WX    TMP DP  RH WIND       PRES   REMARKS
BROOKHAVEN     FAIR      55  52  88 CALM      30.16R
COLUMBIA       FAIR      55  52  88 CALM      30.11S
HATTIESBURG    CLEAR     56  53  90 NW3       30.13R
6HR MIN TEMP:  55; 6HR MAX TEMP:  66;

MCCOMB         CLEAR     59  52  77 N7        30.13R
6HR MIN TEMP:  59; 6HR MAX TEMP:  66;

NATCHEZ        CLEAR     55  52  88 NE3       30.14R
6HR MIN TEMP:  55; 6HR MAX TEMP:  64;

PINE BELT      CLEAR    N/A N/A N/A N5        30.13S
$$

MSZ080>082-231300-
COASTAL MISSISSIPPI

CITY           SKY/WX    TMP DP  RH WIND       PRES   REMARKS
BAY ST LOUIS   CLEAR     61  50  67 N9        30.09
BILOXI         CLEAR     62  54  73 NE8       30.09R
6HR MIN TEMP:  62; 6HR MAX TEMP:  69;

PASCAGOULA     CLEAR     55  53  93 N6        30.08R
6HR MIN TEMP:  54; 6HR MAX TEMP:  62;

GULFPORT       CLEAR     60  53  77 N7        30.09R
6HR MIN TEMP:  60; 6HR MAX TEMP:  68;

$$



USA.gov is the U.S. government's official web portal to all federal, state and local government web resources and services.